Location: Newark
(36.0797°N, 3.9744°E)
Time: 20:40:05
(UTC+00:00)

Tiros 1 - Pass Details

Date: 08 December 2019
Orbit: 630 x 664 km, 48.4° (Epoch: 28 January)

Event Time Altitude Azimuth Distance (km) Brightness Sun altitude
Rises 04:47:51 0° 194° (SSW) 2,954 10.5 -22.4°
Reaches altitude 10° 04:50:43 10° 177° (S) 2,041 9.9 -21.9°
Maximum altitude 04:54:05 20° 131° (SE) 1,499 9.7 -21.2°
Drops below altitude 10° 04:57:27 10° 85° (E) 2,033 10.7 -20.6°
Sets 05:00:17 0° 68° (ENE) 2,939 11.4 -20.0°
